Time,TemperatureF,DewpointF,PressureIn,WindDirection,WindDirectionDegrees,WindSpeedMPH,WindSpeedGustMPH,Humidity,HourlyPrecipIn,Conditions,Clouds,dailyrainin,SoftwareType,DateUTC
2013-01-29 00:01:00,13.0,8.0,-100.00,WNW,294,3.0,4.0,79,-99.99,,,-99.99,,2013-01-29 07:01:00,
2013-01-29 00:11:00,13.0,8.0,-100.00,WNW,294,3.0,4.0,79,-99.99,,,-99.99,,2013-01-29 07:11:00,
2013-01-29 00:21:00,14.0,9.0,-100.00,WSW,254,7.0,7.0,80,-99.99,,,-99.99,,2013-01-29 07:21:00,
2013-01-29 00:31:00,14.0,9.0,-100.00,WSW,254,7.0,7.0,80,-99.99,,,-99.99,,2013-01-29 07:31:00,
2013-01-29 00:41:00,14.0,9.0,-100.00,WSW,254,7.0,7.0,80,-99.99,,,-99.99,,2013-01-29 07:41:00,
2013-01-29 01:31:00,11.0,7.0,-100.00,WNW,303,4.0,4.0,80,-99.99,,,-99.99,,2013-01-29 08:31:00,
2013-01-29 01:41:00,11.0,6.0,-100.00,NNE,31,3.0,4.0,80,-99.99,,,-99.99,,2013-01-29 08:41:00,
2013-01-29 01:52:00,11.0,6.0,-100.00,NNE,31,3.0,4.0,80,-99.99,,,-99.99,,2013-01-29 08:52:00,
2013-01-29 02:01:00,11.0,7.0,-100.00,ENE,75,2.0,2.0,81,-99.99,,,-99.99,,2013-01-29 09:01:00,
2013-01-29 02:11:00,11.0,7.0,-100.00,ENE,75,1.0,2.0,81,-99.99,,,-99.99,,2013-01-29 09:11:00,
2013-01-29 02:20:00,12.0,8.0,-100.00,East,95,1.0,6.0,83,-99.99,,,-99.99,,2013-01-29 09:20:00,
2013-01-29 02:21:00,11.0,7.0,-100.00,ENE,75,1.0,2.0,81,-99.99,,,-99.99,,2013-01-29 09:21:00,
2013-01-29 02:31:00,11.0,6.0,-100.00,ENE,64,2.0,4.0,82,-99.99,,,-99.99,,2013-01-29 09:31:00,
2013-01-29 02:42:00,11.0,6.0,-100.00,ENE,64,2.0,4.0,82,-99.99,,,-99.99,,2013-01-29 09:42:00,
2013-01-29 02:51:00,12.0,8.0,-100.00,East,95,1.0,6.0,83,-99.99,,,-99.99,,2013-01-29 09:51:00,
2013-01-29 03:01:00,12.0,8.0,-100.00,East,95,1.0,6.0,83,-99.99,,,-99.99,,2013-01-29 10:01:00,
2013-01-29 03:11:00,12.0,8.0,-100.00,East,95,1.0,6.0,83,-99.99,,,-99.99,,2013-01-29 10:11:00,
2013-01-29 03:32:00,9.0,5.0,-100.00,ENE,78,2.0,4.0,83,-99.99,,,-99.99,,2013-01-29 10:32:00,
2013-01-29 03:41:00,9.0,5.0,-100.00,ENE,63,3.0,4.0,84,-99.99,,,-99.99,,2013-01-29 10:41:00,
2013-01-29 03:51:00,9.0,5.0,-100.00,ENE,63,3.0,4.0,84,-99.99,,,-99.99,,2013-01-29 10:51:00,
2013-01-29 04:01:00,8.0,4.0,-100.00,NE,43,3.0,4.0,84,-99.99,,,-99.99,,2013-01-29 11:01:00,
2013-01-29 04:10:00,10.0,7.0,-100.00,ESE,123,3.0,4.0,86,-99.99,,,-99.99,,2013-01-29 11:10:00,
2013-01-29 04:11:00,8.0,4.0,-100.00,NE,43,3.0,4.0,84,-99.99,,,-99.99,,2013-01-29 11:11:00,
2013-01-29 04:21:00,8.0,4.0,-100.00,NE,43,3.0,4.0,84,-99.99,,,-99.99,,2013-01-29 11:21:00,
2013-01-29 04:31:00,8.0,5.0,-100.00,ENE,76,3.0,4.0,86,-99.99,,,-99.99,,2013-01-29 11:31:00,
2013-01-29 04:42:00,10.0,7.0,-100.00,ESE,123,3.0,4.0,86,-99.99,,,-99.99,,2013-01-29 11:42:00,
2013-01-29 04:52:00,10.0,7.0,-100.00,ESE,123,3.0,4.0,86,-99.99,,,-99.99,,2013-01-29 11:52:00,
2013-01-29 05:02:00,10.0,7.0,-100.00,ESE,123,3.0,4.0,86,-99.99,,,-99.99,,2013-01-29 12:02:00,
2013-01-29 07:21:00,12.0,9.0,-100.00,NE,43,1.0,2.0,89,-99.99,,,-99.99,,2013-01-29 14:21:00,
2013-01-29 07:32:00,12.0,9.0,-100.00,NE,43,1.0,2.0,89,-99.99,,,-99.99,,2013-01-29 14:32:00,
2013-01-29 07:43:00,12.0,9.0,-100.00,East,96,5.0,5.0,89,-99.99,,,-99.99,,2013-01-29 14:43:00,
2013-01-29 07:52:00,12.0,10.0,-100.00,ESE,102,4.0,5.0,90,-99.99,,,-99.99,,2013-01-29 14:52:00,
2013-01-29 08:02:00,12.0,10.0,-100.00,ESE,102,4.0,5.0,90,-99.99,,,-99.99,,2013-01-29 15:02:00,
2013-01-29 08:11:00,13.0,10.0,-100.00,ENE,78,3.0,4.0,90,-99.99,,,-99.99,,2013-01-29 15:11:00,
2013-01-29 08:21:00,13.0,10.0,-100.00,ENE,78,3.0,4.0,90,-99.99,,,-99.99,,2013-01-29 15:21:00,
2013-01-29 08:32:00,13.0,11.0,-100.00,SE,134,4.0,5.0,90,-99.99,,,-99.99,,2013-01-29 15:32:00,
2013-01-29 08:42:00,13.0,11.0,-100.00,SE,134,4.0,5.0,90,-99.99,,,-99.99,,2013-01-29 15:42:00,
2013-01-29 08:52:00,13.0,11.0,-100.00,SE,134,4.0,5.0,90,-99.99,,,-99.99,,2013-01-29 15:52:00,
2013-01-29 09:02:00,13.0,11.0,-100.00,ESE,102,4.0,5.0,90,-99.99,,,-99.99,,2013-01-29 16:02:00,
2013-01-29 09:12:00,13.0,11.0,-100.00,East,82,2.0,3.0,90,-99.99,,,-99.99,,2013-01-29 16:12:00,
2013-01-29 09:22:00,13.0,11.0,-100.00,East,82,2.0,3.0,90,-99.99,,,-99.99,,2013-01-29 16:22:00,
2013-01-29 09:32:00,14.0,11.0,-100.00,East,96,4.0,5.0,90,-99.99,,,-99.99,,2013-01-29 16:32:00,
2013-01-29 09:42:00,14.0,12.0,-100.00,ESE,118,3.0,5.0,90,-99.99,,,-99.99,,2013-01-29 16:42:00,
2013-01-29 09:52:00,14.0,12.0,-100.00,ESE,118,3.0,5.0,90,-99.99,,,-99.99,,2013-01-29 16:52:00,
2013-01-29 10:02:00,14.0,12.0,-100.00,ESE,118,3.0,5.0,90,-99.99,,,-99.99,,2013-01-29 17:02:00,
2013-01-29 10:11:00,16.0,13.0,-100.00,SE,124,1.0,2.0,91,-99.99,,,-99.99,,2013-01-29 17:11:00,
2013-01-29 10:21:00,16.0,13.0,-100.00,SE,124,1.0,2.0,91,-99.99,,,-99.99,,2013-01-29 17:21:00,
2013-01-29 10:32:00,17.0,14.0,-100.00,East,100,1.0,4.0,91,-99.99,,,-99.99,,2013-01-29 17:32:00,
2013-01-29 10:42:00,17.0,14.0,-100.00,East,100,1.0,4.0,91,-99.99,,,-99.99,,2013-01-29 17:42:00,
2013-01-29 10:52:00,17.0,15.0,-100.00,East,96,1.0,4.0,91,-99.99,,,-99.99,,2013-01-29 17:52:00,
2013-01-29 11:02:00,18.0,16.0,-100.00,ENE,70,0.0,2.0,90,-99.99,,,-99.99,,2013-01-29 18:02:00,
2013-01-29 11:12:00,17.0,14.0,-100.00,NNE,24,3.0,5.0,89,-99.99,,,-99.99,,2013-01-29 18:12:00,
2013-01-29 11:22:00,17.0,14.0,-100.00,NNE,24,3.0,5.0,89,-99.99,,,-99.99,,2013-01-29 18:22:00,
2013-01-29 11:33:00,20.0,18.0,-100.00,NE,53,0.0,2.0,90,-99.99,,,-99.99,,2013-01-29 18:33:00,
2013-01-29 11:42:00,18.0,15.0,-100.00,ESE,109,4.0,5.0,87,-99.99,,,-99.99,,2013-01-29 18:42:00,
2013-01-29 11:51:00,18.0,15.0,-100.00,ESE,109,4.0,5.0,87,-99.99,,,-99.99,,2013-01-29 18:51:00,
2013-01-29 12:02:00,18.0,15.0,-100.00,ESE,109,4.0,5.0,87,-99.99,,,-99.99,,2013-01-29 19:02:00,
2013-01-29 12:11:00,19.0,16.0,-100.00,SSE,150,3.0,5.0,86,-99.99,,,-99.99,,2013-01-29 19:11:00,
2013-01-29 12:22:00,19.0,16.0,-100.00,SSE,150,3.0,5.0,86,-99.99,,,-99.99,,2013-01-29 19:22:00,
2013-01-29 12:32:00,21.0,19.0,-100.00,South,178,1.0,6.0,88,-99.99,,,-99.99,,2013-01-29 19:32:00,
2013-01-29 12:42:00,22.0,18.0,-100.00,East,100,2.0,5.0,83,-99.99,,,-99.99,,2013-01-29 19:42:00,
2013-01-29 12:52:00,21.0,17.0,-100.00,East,88,3.0,5.0,84,-99.99,,,-99.99,,2013-01-29 19:52:00,
2013-01-29 13:02:00,20.0,15.0,-100.00,East,94,5.0,5.0,82,-99.99,,,-99.99,,2013-01-29 20:02:00,
2013-01-29 13:12:00,20.0,15.0,-100.00,East,94,4.0,6.0,83,-99.99,,,-99.99,,2013-01-29 20:12:00,
2013-01-29 13:22:00,20.0,16.0,-100.00,East,99,3.0,4.0,82,-99.99,,,-99.99,,2013-01-29 20:22:00,
2013-01-29 13:32:00,22.0,17.0,-100.00,WNW,297,5.0,9.0,82,-99.99,,,-99.99,,2013-01-29 20:32:00,
2013-01-29 13:42:00,23.0,17.0,-100.00,WSW,257,9.0,20.0,75,-99.99,,,-99.99,,2013-01-29 20:42:00,
2013-01-29 13:53:00,23.0,17.0,-100.00,WSW,257,9.0,20.0,75,-99.99,,,-99.99,,2013-01-29 20:53:00,
2013-01-29 14:02:00,24.0,16.0,-100.00,West,269,15.0,18.0,71,-99.99,,,-99.99,,2013-01-29 21:02:00,
2013-01-29 14:12:00,24.0,16.0,-100.00,West,269,15.0,18.0,71,-99.99,,,-99.99,,2013-01-29 21:12:00,
2013-01-29 14:22:00,25.0,17.0,-100.00,WSW,244,10.0,17.0,71,-99.99,,,-99.99,,2013-01-29 21:22:00,
2013-01-29 14:33:00,25.0,17.0,-100.00,WSW,255,12.0,16.0,69,-99.99,,,-99.99,,2013-01-29 21:33:00,
2013-01-29 14:42:00,24.0,16.0,-100.00,West,259,15.0,18.0,70,-99.99,,,-99.99,,2013-01-29 21:42:00,
2013-01-29 14:52:00,26.0,17.0,-100.00,West,260,13.0,19.0,69,-99.99,,,-99.99,,2013-01-29 21:52:00,
2013-01-29 15:02:00,26.0,17.0,-100.00,West,260,13.0,19.0,69,-99.99,,,-99.99,,2013-01-29 22:02:00,
2013-01-29 15:12:00,25.0,16.0,-100.00,WSW,252,15.0,22.0,69,-99.99,,,-99.99,,2013-01-29 22:12:00,
2013-01-29 15:21:00,25.0,17.0,-100.00,West,263,12.0,21.0,69,-99.99,,,-99.99,,2013-01-29 22:21:00,
2013-01-29 15:32:00,25.0,16.0,-100.00,West,259,14.0,22.0,68,-99.99,,,-99.99,,2013-01-29 22:32:00,
2013-01-29 15:42:00,25.0,16.0,-100.00,West,263,16.0,19.0,67,-99.99,,,-99.99,,2013-01-29 22:42:00,
2013-01-29 15:52:00,25.0,16.0,-100.00,West,273,12.0,15.0,68,-99.99,,,-99.99,,2013-01-29 22:52:00,
2013-01-29 16:02:00,24.0,15.0,-100.00,West,261,13.0,17.0,67,-99.99,,,-99.99,,2013-01-29 23:02:00,
2013-01-29 16:11:00,24.0,15.0,-100.00,WSW,257,11.0,20.0,66,-99.99,,,-99.99,,2013-01-29 23:11:00,
2013-01-29 16:22:00,24.0,15.0,-100.00,WSW,257,11.0,20.0,66,-99.99,,,-99.99,,2013-01-29 23:22:00,
2013-01-29 16:32:00,23.0,14.0,-100.00,WSW,257,15.0,21.0,67,-99.99,,,-99.99,,2013-01-29 23:32:00,
2013-01-29 16:42:00,24.0,13.0,-100.00,WSW,257,14.0,17.0,63,-99.99,,,-99.99,,2013-01-29 23:42:00,
2013-01-29 16:52:00,24.0,14.0,-100.00,WSW,251,11.0,20.0,62,-99.99,,,-99.99,,2013-01-29 23:52:00,
2013-01-29 17:02:00,24.0,13.0,-100.00,WSW,249,12.0,22.0,62,-99.99,,,-99.99,,2013-01-30 00:02:00,
2013-01-29 17:11:00,24.0,14.0,-100.00,WSW,258,12.0,18.0,64,-99.99,,,-99.99,,2013-01-30 00:11:00,
2013-01-29 17:22:00,23.0,14.0,-100.00,WNW,286,14.0,20.0,66,-99.99,,,-99.99,,2013-01-30 00:22:00,
2013-01-29 17:32:00,23.0,13.0,-100.00,WSW,255,14.0,22.0,63,-99.99,,,-99.99,,2013-01-30 00:32:00,
2013-01-29 17:42:00,23.0,13.0,-100.00,West,263,13.0,23.0,65,-99.99,,,-99.99,,2013-01-30 00:42:00,
2013-01-29 17:52:00,23.0,13.0,-100.00,West,274,10.0,18.0,65,-99.99,,,-99.99,,2013-01-30 00:52:00,
2013-01-29 18:01:00,23.0,13.0,-100.00,West,261,13.0,17.0,64,-99.99,,,-99.99,,2013-01-30 01:01:00,
2013-01-29 18:11:00,22.0,13.0,-100.00,West,275,9.0,17.0,66,-99.99,,,-99.99,,2013-01-30 01:11:00,
2013-01-29 18:22:00,22.0,12.0,-100.00,West,272,11.0,17.0,66,-99.99,,,-99.99,,2013-01-30 01:22:00,
2013-01-29 18:31:00,21.0,12.0,-100.00,WNW,283,8.0,16.0,67,-99.99,,,-99.99,,2013-01-30 01:31:00,
2013-01-29 18:42:00,20.0,12.0,-100.00,WNW,296,9.0,10.0,70,-99.99,,,-99.99,,2013-01-30 01:42:00,
2013-01-29 18:51:00,20.0,13.0,-100.00,NW,310,7.0,10.0,71,-99.99,,,-99.99,,2013-01-30 01:51:00,
2013-01-29 19:02:00,20.0,12.0,-100.00,WNW,291,8.0,13.0,70,-99.99,,,-99.99,,2013-01-30 02:02:00,
2013-01-29 19:12:00,20.0,12.0,-100.00,WNW,303,6.0,9.0,71,-99.99,,,-99.99,,2013-01-30 02:12:00,
2013-01-29 19:21:00,20.0,12.0,-100.00,WNW,297,5.0,8.0,70,-99.99,,,-99.99,,2013-01-30 02:21:00,
2013-01-29 19:33:00,20.0,12.0,-100.00,WNW,297,5.0,8.0,70,-99.99,,,-99.99,,2013-01-30 02:33:00,
2013-01-29 19:42:00,20.0,12.0,-100.00,WNW,297,5.0,8.0,70,-99.99,,,-99.99,,2013-01-30 02:42:00,
2013-01-29 19:52:00,20.0,12.0,-100.00,WNW,303,7.0,9.0,69,-99.99,,,-99.99,,2013-01-30 02:52:00,
2013-01-29 20:02:00,20.0,12.0,-100.00,WNW,300,7.0,8.0,70,-99.99,,,-99.99,,2013-01-30 03:02:00,
2013-01-29 20:11:00,20.0,12.0,-100.00,WNW,290,6.0,8.0,70,-99.99,,,-99.99,,2013-01-30 03:11:00,
2013-01-29 20:22:00,20.0,12.0,-100.00,NW,305,8.0,9.0,69,-99.99,,,-99.99,,2013-01-30 03:22:00,
2013-01-29 20:31:00,20.0,12.0,-100.00,NW,305,8.0,9.0,69,-99.99,,,-99.99,,2013-01-30 03:31:00,
2013-01-29 20:42:00,19.0,12.0,-100.00,NW,311,4.0,7.0,72,-99.99,,,-99.99,,2013-01-30 03:42:00,
2013-01-29 20:51:00,20.0,12.0,-100.00,NW,321,4.0,11.0,69,-99.99,,,-99.99,,2013-01-30 03:51:00,
2013-01-29 21:02:00,19.0,12.0,-100.00,WNW,298,3.0,8.0,71,-99.99,,,-99.99,,2013-01-30 04:02:00,
2013-01-29 21:11:00,19.0,12.0,-100.00,West,273,5.0,7.0,72,-99.99,,,-99.99,,2013-01-30 04:11:00,
2013-01-29 21:21:00,19.0,12.0,-100.00,West,273,5.0,7.0,72,-99.99,,,-99.99,,2013-01-30 04:21:00,
2013-01-29 21:32:00,20.0,12.0,-100.00,NW,316,4.0,8.0,71,-99.99,,,-99.99,,2013-01-30 04:32:00,
2013-01-29 21:41:00,20.0,12.0,-100.00,NW,316,4.0,8.0,71,-99.99,,,-99.99,,2013-01-30 04:41:00,
2013-01-29 21:52:00,20.0,12.0,-100.00,NW,305,4.0,9.0,70,-99.99,,,-99.99,,2013-01-30 04:52:00,
2013-01-29 22:03:00,19.0,12.0,-100.00,West,271,5.0,6.0,74,-99.99,,,-99.99,,2013-01-30 05:03:00,
2013-01-29 22:11:00,19.0,12.0,-100.00,West,277,5.0,6.0,75,-99.99,,,-99.99,,2013-01-30 05:11:00,
2013-01-29 22:22:00,19.0,13.0,-100.00,WSW,248,6.0,7.0,77,-99.99,,,-99.99,,2013-01-30 05:22:00,
2013-01-29 22:32:00,19.0,13.0,-100.00,West,263,6.0,8.0,76,-99.99,,,-99.99,,2013-01-30 05:32:00,
2013-01-29 22:42:00,19.0,13.0,-100.00,West,263,6.0,8.0,76,-99.99,,,-99.99,,2013-01-30 05:42:00,
2013-01-29 22:52:00,20.0,13.0,-100.00,West,274,5.0,8.0,76,-99.99,,,-99.99,,2013-01-30 05:52:00,
2013-01-29 23:02:00,20.0,13.0,-100.00,West,274,5.0,8.0,76,-99.99,,,-99.99,,2013-01-30 06:02:00,
2013-01-29 23:11:00,20.0,13.0,-100.00,WNW,296,7.0,9.0,75,-99.99,,,-99.99,,2013-01-30 06:11:00,
2013-01-29 23:21:00,20.0,13.0,-100.00,WNW,296,7.0,9.0,75,-99.99,,,-99.99,,2013-01-30 06:21:00,
2013-01-29 23:31:00,20.0,14.0,-100.00,WNW,297,8.0,11.0,76,-99.99,,,-99.99,,2013-01-30 06:31:00,
2013-01-29 23:41:00,20.0,14.0,-100.00,WNW,297,8.0,11.0,76,-99.99,,,-99.99,,2013-01-30 06:41:00,
2013-01-29 23:51:00,20.0,14.0,-100.00,WNW,302,7.0,10.0,77,-99.99,,,-99.99,,2013-01-30 06:51:00,